Grand Junction, CO

11:20 AM MST on November 12, 2019 (GMT -0700)
Walker

Weather History for KGJT - September, 2019

Change the Weather History Date:

Sunday, September 8, 2019

  Actual Average Record
Temperature  
Mean Temperature 70 °F 69 °F  
Max Temperature 81 °F 84 °F 98 °F (1977)
Min Temperature 59 °F 55 °F 42 °F (1894)
Degree Days  
Heating Degree Days 0 1  
Month to date heating degree days 0 4  
Since 1 July heating degree days 0 7  
Cooling Degree Days 5 5  
Month to date cooling degree days 112 48  
Year to date cooling degree days 1233 1067  
Growing Degree Days 20 (Base 50)    
Moisture  
Dew Point 48 °F    
Average Humidity 48    
Maximum Humidity 68    
Minimum Humidity 27    
Precipitation  
Precipitation 0.01 in 0.04 in 0.49 in (1929)
Month to date precipitation 0.05 0.30  
Year to date precipitation 6.91 6.15  
Snow  
Snow 0.00 in 0.00 in 0.00 in (2018)
Month to date snowfall 0.0 0.0  
Since 1 July snowfall 0.0 0.0  
Since 1 September snowfall 0.0 0.0  
Snow Depth 0.00 in    
Sea Level Pressure  
Sea Level Pressure 29.71 in    
Wind  
Wind Speed 8 mph (East)    
Max Wind Speed 32 mph    
Max Gust Speed 41 mph    
Visibility 10 miles    
Events Rain , Thunderstorm    
T = Trace of Precipitation, MM = Missing Value Source: NWS Daily Summary

Daily Weather History Graph

Daily Weather History Graph

Search for Another Location

Airport or City:

Astronomy

Sep. 08, 2019 Rise Set
Actual Time 6:49 AM MDT 7:33 PM MDT
Civil Twilight 6:21 AM MDT 8:00 PM MDT
Nautical Twilight 5:49 AM MDT 8:32 PM MDT
Astronomical Twilight 5:16 AM MDT 9:05 PM MDT
Moon 4:43 PM MDT (9/8) 1:33 AM MDT (9/8)
Length of Visible Light 13h 39m
Length of Day
12h 44m
Waxing Gibbous, 75% of the Moon is Illuminated
Sep 8
Waxing Gibbous
Sep 13
Full
Sep 21
Last Quarter
Sep 28
New
Oct 5
First Quarter

Hourly Weather History & Observations

Time (MDT) Temp. Dew Point Humidity Pressure Visibility Wind Dir Wind Speed Gust Speed Precip Events Conditions
12:53 AM 73.9 °F 37.9 °F 27% 29.74 in 10.0 mi ESE 15.0 mph - N/A   Clear
1:53 AM 71.1 °F 37.9 °F 30% 29.73 in 10.0 mi East 10.4 mph - N/A   Clear
2:53 AM 66.0 °F 39.0 °F 37% 29.73 in 10.0 mi SE 11.5 mph - N/A   Clear
3:53 AM 64.0 °F 37.9 °F 38% 29.71 in 10.0 mi ESE 12.7 mph - N/A   Clear
4:53 AM 64.0 °F 39.0 °F 40% 29.72 in 10.0 mi ESE 12.7 mph - N/A   Clear
5:53 AM 62.1 °F 37.9 °F 41% 29.72 in 10.0 mi East 6.9 mph - N/A   Clear
6:53 AM 62.1 °F 37.9 °F 41% 29.72 in 10.0 mi SE 10.4 mph - N/A   Partly Cloudy
7:53 AM 66.0 °F 39.9 °F 38% 29.73 in 10.0 mi ESE 12.7 mph - N/A   Clear
8:53 AM 70.0 °F 39.9 °F 33% 29.72 in 10.0 mi ESE 15.0 mph 25.3 mph N/A   Clear
9:53 AM 78.1 °F 42.1 °F 28% 29.72 in 10.0 mi SSE 12.7 mph 19.6 mph N/A   Clear
10:53 AM 77.0 °F 43.0 °F 30% 29.71 in 10.0 mi SE 8.1 mph 23.0 mph N/A   Partly Cloudy
11:53 AM 72.0 °F 53.1 °F 51% 29.73 in 9.0 mi SSE 11.5 mph 16.1 mph 0.00 in Rain , Thunderstorm Light Rain
12:14 PM 63.0 °F 59.0 °F 87% 29.95 in 9.0 mi North 20.7 mph - 0.00 in Rain Light Rain
12:53 PM 66.0 °F 57.9 °F 75% 29.75 in 10.0 mi North 12.7 mph - 0.00 in   Mostly Cloudy
1:53 PM 73.0 °F 55.0 °F 53% 29.71 in 10.0 mi Calm Calm - 0.01 in   Partly Cloudy
2:53 PM 77.0 °F 55.0 °F 47% 29.67 in 10.0 mi South 4.6 mph - N/A   Partly Cloudy
3:53 PM 78.1 °F 53.1 °F 42% 29.63 in 10.0 mi Variable 5.8 mph - N/A   Scattered Clouds
4:03 PM 78.1 °F 53.1 °F 42% 29.83 in 10.0 mi WSW 10.4 mph - N/A Thunderstorm Partly Cloudy
4:31 PM 70.0 °F 55.0 °F 59% 29.84 in 10.0 mi NW 18.4 mph - 0.00 in   Mostly Cloudy
4:53 PM 75.0 °F 55.0 °F 50% 29.63 in 10.0 mi NNE 11.5 mph - 0.00 in   Scattered Clouds
5:01 PM 73.9 °F 57.9 °F 57% 29.81 in 10.0 mi NE 13.8 mph - N/A   Partly Cloudy
5:53 PM 80.1 °F 48.9 °F 34% 29.60 in 10.0 mi Calm Calm - N/A   Clear
6:53 PM 78.1 °F 52.0 °F 40% 29.60 in 10.0 mi East 6.9 mph - N/A   Clear
7:53 PM 73.0 °F 54.0 °F 51% 29.61 in 10.0 mi WNW 5.8 mph - N/A   Partly Cloudy
8:53 PM 66.0 °F 55.0 °F 68% 29.65 in 10.0 mi NE 3.5 mph - N/A   Partly Cloudy
9:53 PM 64.0 °F 54.0 °F 70% 29.65 in 10.0 mi ENE 5.8 mph - N/A   Clear
10:53 PM 64.0 °F 51.1 °F 63% 29.66 in 10.0 mi ENE 8.1 mph - N/A   Clear
11:53 PM 64.9 °F 52.0 °F 63% 29.69 in 10.0 mi SSE 4.6 mph - N/A   Partly Cloudy